Regional Weather Roundup
Issued by NWS

Home | Current Version | Previous Version | Text Only | Print | Product List | Glossary On
Versions: 1 2 3 4 5 6 7 8 9 10 11 12 13 14 15 16 17 18 19 20 21 22 23 24 25 26 27 28 29 30 31 32 33 34 35 36 37 38 39 40 41 42 43 44 45 46 47 48 49 50
000
ASUS44 KLIX 010406
RWRLA
LOUISIANA WEATHER ROUNDUP
NATIONAL WEATHER SERVICE NEW ORLEANS LA
1100 PM CDT MON AUG 31 2015

NOTE: "FAIR" INDICATES FEW OR NO CLOUDS BELOW 12,000 FEET WITH NO
      SIGNIFICANT WEATHER AND/OR OBSTRUCTIONS TO VISIBILITY.
      SKY/WX - SKY CONDITION AND SIGNIFICANT WEATHER.
      TMP - AIR TEMPERATURE.    DP   - DEWPOINT TEMPERATURE.
      RH  - RELATIVE HUMIDITY.  PRES - PRESSURE.
      HX  - HEAT INDEX.         WCI  - WIND CHILL INDEX.

*  THESE STATIONS ARE NOT NWS OR FAA STATIONS AND ARE NOT UNDER
   NWS QUALITY CONTROL.

LAZ040-048-061>063-065-066-069-010500-
SOUTHEAST LOUISIANA

CITY           SKY/WX    TMP DP  RH WIND       PRES   REMARKS
N.O. AUDUBON   NOT AVBL
N.O. INTL ARPT PTCLDY    79  71  76 CALM      30.04S
N.O. LAKEFRONT CLEAR     81  69  67 S5        30.05S
N.O. DOWNTOWN* FAIR      84  72  65 CALM      30.05S
RESERVE*       FAIR      77  74  88 CALM      30.04S
SLIDELL        CLEAR     74  71  91 CALM      30.04S
BATON ROUGE    MOCLDY    77  73  87 CALM      30.04S
BOOTHVILLE     CLEAR     80  71  74 CALM      30.05F
BELLE CHASSE   PTCLDY    74  71  91 CALM      30.04F
BOGALUSA*      NOT AVBL
GALLIANO*      PTCLDY    74  71  91 CALM      30.04S
NEW ROADS*     FAIR      74  72  92 CALM      30.04R
GONZALES*      FAIR      75  75 100 CALM      30.03F
HAMMOND*       CLEAR     75  68  78 CALM      30.06R
HOUMA*         MOCLDY    76  74  92 CALM      30.04S
PORT FOURCHON* CLEAR     84  72  65 SE7       30.04F

$$

LAZ041-044-053-054-010500-
SOUTHWEST LOUISIANA

CITY           SKY/WX    TMP DP  RH WIND       PRES   REMARKS
LAKE CHARLES   CLOUDY    77  74  90 CALM      30.03R
LAFAYETTE      CLOUDY    78  74  87 CALM      30.03S
PATTERSON      MOCLDY    75  72  88 CALM      30.06S
SALT POINT       N/A     78  75  90 CALM      30.02S
NEW IBERIA     CLOUDY    77  75  93 SE6       30.04S
CHENAULT AIRPK CLOUDY    76  74  91 CALM      30.03S

$$

LAZ027-028-010500-
CENTRAL LOUISIANA

CITY           SKY/WX    TMP DP  RH WIND       PRES   REMARKS
FORT POLK      CLOUDY    78  72  82 SE5       30.02S
ALEXANDRIA INT MOCLDY    76  73  91 CALM      30.02R
ALEXANDRIA     MOCLDY    75  70  84 CALM      30.04R

$$

LAZ001-002-010500-
NORTHWEST LOUISIANA

CITY           SKY/WX    TMP DP  RH WIND       PRES   REMARKS
SHREVEPORT     CLOUDY    77  64  64 S6        30.01S
BARKSDALE AFB  MOCLDY    74  65  74 S6        30.01S
DTN SHREVEPORT MOCLDY    79  64  60 SE6       30.01S

$$

LAZ014-016-010500-
NORTHEAST LOUISIANA

CITY           SKY/WX    TMP DP  RH WIND       PRES   REMARKS
MONROE         CLEAR     76  70  82 CALM      30.03S
TALLULAH       PTCLDY    71  68  90 CALM      30.03R

$$




USA.gov is the U.S. government's official web portal to all federal, state and local government web resources and services.